Location: Unspecified
(40.8819°N, 0.0000°E)
Time: 08:04:32
(UTC+00:00)

BUGSAT 1 - Pass Details

Date: 30 April 2024
Orbit: 531 x 580 km, 98.1° (Epoch: 25 May)

Event Time Altitude Azimuth Distance (km) Brightness Sun altitude
Rises 19:54:11 0° 178° (S) 2,721 ? -10.7°
Reaches altitude 10° 19:56:21 10° 184° (S) 1,839 ? -11.1°
Maximum altitude 20:00:13 49° 260° (W) 734 ? -11.7°
Drops below altitude 10° 20:04:10 10° 336° (NNW) 1,882 ? -12.3°
Sets 20:06:24 0° 342° (NNW) 2,792 ? -12.7°
